TimeCDT,TemperatureF,Dew PointF,Humidity,Sea Level PressureIn,VisibilityMPH,Wind Direction,Wind SpeedMPH,Gust SpeedMPH,PrecipitationIn,Events,Conditions,WindDirDegrees,DateUTC
12:15 AM,58.1,53.6,85,30.13,10.0,Calm,Calm,-,N/A,,Clear,0,2013-08-15 05:15:00
12:35 AM,58.1,53.2,84,30.13,10.0,Calm,Calm,-,N/A,,Clear,0,2013-08-15 05:35:00
12:55 AM,57.2,53.6,88,30.12,10.0,Calm,Calm,-,N/A,,Clear,0,2013-08-15 05:55:00
1:15 AM,57.4,53.6,87,30.12,10.0,Calm,Calm,-,N/A,,Clear,0,2013-08-15 06:15:00
1:35 AM,56.8,53.2,88,30.11,10.0,Calm,Calm,-,N/A,,Clear,0,2013-08-15 06:35:00
1:55 AM,57.4,52.9,85,30.11,10.0,Calm,Calm,-,N/A,,Clear,0,2013-08-15 06:55:00
2:15 AM,55.9,53.8,92,30.11,10.0,NNE,3.5,-,N/A,,Clear,20,2013-08-15 07:15:00
2:35 AM,56.7,52.5,86,30.11,10.0,Calm,Calm,-,N/A,,Clear,0,2013-08-15 07:35:00
2:55 AM,55.9,52.7,89,30.11,10.0,Calm,Calm,-,N/A,,Clear,0,2013-08-15 07:55:00
3:15 AM,55.6,52.7,90,30.11,10.0,Calm,Calm,-,N/A,,Clear,0,2013-08-15 08:15:00
3:35 AM,54.9,54.0,97,30.11,10.0,Calm,Calm,-,N/A,,Clear,0,2013-08-15 08:35:00
3:55 AM,54.1,54.1,100,30.10,10.0,Calm,Calm,-,N/A,,Clear,0,2013-08-15 08:55:00
4:15 AM,53.8,53.8,100,30.10,10.0,Calm,Calm,-,N/A,,Clear,0,2013-08-15 09:15:00
4:35 AM,54.1,54.1,100,30.10,10.0,Calm,Calm,-,N/A,,Clear,0,2013-08-15 09:35:00
4:55 AM,54.0,54.0,100,30.10,10.0,Calm,Calm,-,N/A,,Clear,0,2013-08-15 09:55:00
5:15 AM,53.6,53.6,100,30.11,10.0,Calm,Calm,-,N/A,,Clear,0,2013-08-15 10:15:00
5:35 AM,53.1,53.1,100,30.10,10.0,Calm,Calm,-,N/A,,Clear,0,2013-08-15 10:35:00
5:55 AM,53.2,53.2,100,30.10,10.0,Calm,Calm,-,N/A,,Clear,0,2013-08-15 10:55:00
6:15 AM,53.4,53.4,100,30.11,10.0,Calm,Calm,-,N/A,,Clear,0,2013-08-15 11:15:00
6:35 AM,53.8,53.8,100,30.12,10.0,Calm,Calm,-,N/A,,Clear,0,2013-08-15 11:35:00
6:55 AM,55.0,55.0,100,30.12,10.0,Calm,Calm,-,N/A,,Clear,0,2013-08-15 11:55:00
7:15 AM,57.0,56.1,97,30.12,10.0,Calm,Calm,-,N/A,,Clear,0,2013-08-15 12:15:00
7:35 AM,58.8,56.8,93,30.13,10.0,Calm,Calm,-,N/A,,Clear,0,2013-08-15 12:35:00
7:55 AM,61.0,57.0,87,30.13,10.0,Calm,Calm,-,N/A,,Clear,0,2013-08-15 12:55:00
8:15 AM,62.2,57.9,86,30.12,10.0,NE,3.5,-,N/A,,Clear,40,2013-08-15 13:15:00
8:35 AM,63.0,55.8,77,30.13,10.0,Calm,Calm,-,N/A,,Clear,0,2013-08-15 13:35:00
8:55 AM,64.9,55.4,71,30.13,10.0,NE,3.5,-,N/A,,Clear,50,2013-08-15 13:55:00
9:15 AM,66.2,55.6,69,30.13,10.0,Calm,Calm,-,N/A,,Clear,0,2013-08-15 14:15:00
9:35 AM,67.1,55.9,67,30.13,10.0,ENE,4.6,-,N/A,,Clear,60,2013-08-15 14:35:00
9:55 AM,68.9,55.9,63,30.13,10.0,NE,4.6,-,N/A,,Clear,40,2013-08-15 14:55:00
10:15 AM,70.7,56.1,60,30.13,10.0,ENE,5.8,-,N/A,,Clear,60,2013-08-15 15:15:00
10:35 AM,71.1,52.9,53,30.13,10.0,ENE,5.8,-,N/A,,Clear,70,2013-08-15 15:35:00
10:55 AM,72.1,52.2,49,30.13,10.0,ENE,3.5,-,N/A,,Clear,60,2013-08-15 15:55:00
11:15 AM,72.5,53.4,51,30.13,10.0,NE,6.9,-,N/A,,Clear,50,2013-08-15 16:15:00
11:35 AM,72.7,54.7,53,30.12,10.0,NE,6.9,-,N/A,,Scattered Clouds,40,2013-08-15 16:35:00
11:55 AM,73.0,54.3,52,30.11,10.0,NE,5.8,-,N/A,,Scattered Clouds,40,2013-08-15 16:55:00
12:15 PM,73.8,53.6,49,30.11,10.0,NNE,5.8,-,N/A,,Scattered Clouds,30,2013-08-15 17:15:00
12:35 PM,72.9,54.3,52,30.10,10.0,North,9.2,-,N/A,,Scattered Clouds,10,2013-08-15 17:35:00
12:55 PM,73.8,55.2,52,30.10,10.0,NE,8.1,-,N/A,,Scattered Clouds,50,2013-08-15 17:55:00
1:15 PM,73.9,53.4,49,30.09,10.0,North,5.8,16.1,N/A,,Clear,360,2013-08-15 18:15:00
1:35 PM,74.5,51.6,45,30.09,10.0,ENE,8.1,-,N/A,,Clear,60,2013-08-15 18:35:00
1:55 PM,74.5,52.2,46,30.08,10.0,NE,5.8,-,N/A,,Clear,50,2013-08-15 18:55:00
2:15 PM,75.6,54.0,47,30.08,10.0,NE,8.1,-,N/A,,Clear,40,2013-08-15 19:15:00
2:35 PM,75.7,54.5,48,30.07,10.0,ENE,4.6,-,N/A,,Clear,60,2013-08-15 19:35:00
2:55 PM,75.4,54.5,48,30.07,10.0,NE,4.6,-,N/A,,Clear,50,2013-08-15 19:55:00
3:15 PM,75.7,53.1,45,30.06,10.0,NE,6.9,-,N/A,,Clear,50,2013-08-15 20:15:00
3:35 PM,76.3,54.5,47,30.06,10.0,NNE,5.8,-,N/A,,Clear,30,2013-08-15 20:35:00
3:55 PM,76.3,54.7,47,30.05,10.0,NE,5.8,-,N/A,,Scattered Clouds,50,2013-08-15 20:55:00
4:15 PM,76.8,54.3,46,30.05,10.0,East,3.5,-,N/A,,Scattered Clouds,80,2013-08-15 21:15:00
4:35 PM,75.0,54.5,49,30.05,10.0,ENE,4.6,-,N/A,,Scattered Clouds,60,2013-08-15 21:35:00
4:55 PM,76.3,52.5,43,30.05,10.0,ENE,5.8,-,N/A,,Scattered Clouds,70,2013-08-15 21:55:00
5:15 PM,75.7,55.0,49,30.05,10.0,ENE,3.5,-,N/A,,Scattered Clouds,70,2013-08-15 22:15:00
5:35 PM,75.4,53.6,47,30.05,10.0,East,4.6,-,N/A,,Clear,80,2013-08-15 22:35:00
5:55 PM,74.8,53.4,47,30.05,10.0,NE,4.6,-,N/A,,Clear,40,2013-08-15 22:55:00
6:15 PM,74.5,54.7,50,30.05,10.0,NE,6.9,-,N/A,,Scattered Clouds,50,2013-08-15 23:15:00
6:35 PM,73.4,54.7,52,30.05,10.0,Calm,Calm,-,N/A,,Scattered Clouds,0,2013-08-15 23:35:00
6:55 PM,72.3,57.0,59,30.06,10.0,Calm,Calm,-,N/A,,Clear,0,2013-08-15 23:55:00
7:15 PM,70.5,56.7,61,30.06,10.0,Calm,Calm,-,N/A,,Clear,0,2013-08-16 00:15:00
7:35 PM,69.3,57.0,65,30.06,10.0,Calm,Calm,-,N/A,,Clear,0,2013-08-16 00:35:00
7:55 PM,64.9,58.6,80,30.07,10.0,Calm,Calm,-,N/A,,Clear,0,2013-08-16 00:55:00
8:15 PM,63.7,58.3,83,30.07,7.0,Calm,Calm,-,N/A,,Clear,0,2013-08-16 01:15:00
8:35 PM,63.0,57.9,84,30.07,10.0,North,3.5,-,N/A,,Clear,10,2013-08-16 01:35:00
8:55 PM,63.5,56.5,78,30.07,10.0,NNE,3.5,-,N/A,,Clear,20,2013-08-16 01:55:00
9:15 PM,63.7,56.5,77,30.07,10.0,Calm,Calm,-,N/A,,Clear,0,2013-08-16 02:15:00
9:35 PM,62.6,56.3,80,30.07,10.0,North,3.5,-,N/A,,Clear,360,2013-08-16 02:35:00
9:55 PM,62.8,56.3,79,30.07,10.0,North,3.5,-,N/A,,Clear,360,2013-08-16 02:55:00
10:15 PM,63.1,55.8,77,30.08,10.0,NNE,3.5,-,N/A,,Clear,20,2013-08-16 03:15:00
10:35 PM,63.3,55.6,76,30.08,10.0,North,3.5,-,N/A,,Clear,10,2013-08-16 03:35:00
10:55 PM,62.1,55.8,80,30.08,10.0,North,3.5,-,N/A,,Clear,10,2013-08-16 03:55:00
11:15 PM,61.7,56.3,82,30.08,10.0,North,3.5,-,N/A,,Clear,350,2013-08-16 04:15:00
11:35 PM,61.2,56.3,84,30.09,10.0,Calm,Calm,-,N/A,,Clear,0,2013-08-16 04:35:00
11:55 PM,60.8,56.3,85,30.09,10.0,North,4.6,-,N/A,,Clear,350,2013-08-16 04:55:00